Home   Weather   Leiden   Past weeks

Flag for Netherlands Past Weather in Leiden, Netherlands — Yesterday and Last 2 Weeks

Now
68 °F

Scattered clouds.


Feels Like: 68 °F
Forecast: 62 / 67 °F
Wind: 7 mph from Southwest

Location: Rotterdam Zestienhoven Airport

Current Time: Jul 26, 2017 at 12:56:00 pm

Latest Report: Jul 26, 2017 at 12:25 pm


Visibility: N/A

Pressure: 29.83 "Hg

Humidity: 64%

Dew Point: 55 °F

Location of LeidenLocation

Past Weather in Leiden — Graph

°F

Leiden Temperature Yesterday

Maximum temperature yesterday: 68 °F (at 2:55 pm)
Minimum temperature yesterday: 54 °F (at 4:55 am)
Average temperature yesterday: 62 °F

High & Low Weather Summary for the Past Weeks

 TemperatureHumidityPressure
High84 °F (Jul 19, 2:55 pm)100% (Jul 12, 1:25 am)30.21 "Hg (Jul 12, 1:25 am)
Low48 °F (Jul 13, 4:25 am)43% (Jul 21, 1:25 pm)29.68 "Hg (Jul 12, 7:25 am)
Average64 °F78%29.96 "Hg
* Reported Jul 11 11:25 am — Jul 26 11:25 am, Leiden. Weather by CustomWeather, © 2017

Note: Actual official high and low records may vary slightly from our data, if they occured in-between our weather recording intervals... More about our weather records

Advertising

Leiden Weather History for the Previous 24 Hours

Scroll right to see more
 ConditionsComfort  
Time TempWeatherWind HumidityBarometerVisibility
11:25 am
Wed, Jul 26
68 °FPassing clouds.7 mph64%29.83 "HgN/A
10:55 am68 °FMild.6 mph64%29.83 "HgN/A
10:25 am66 °FPassing clouds.7 mph73%29.83 "HgN/A
9:55 am66 °FPassing clouds.7 mph73%29.83 "HgN/A
9:25 am66 °FPassing clouds.7 mph73%29.83 "HgN/A
8:55 am63 °FPassing clouds.6 mph83%29.83 "HgN/A
8:25 am64 °FMild.5 mph83%29.83 "HgN/A
7:55 am63 °FMild.2 mph88%29.83 "HgN/A
7:25 am59 °FCool.3 mph94%29.83 "HgN/A
6:55 am55 °FClear.2 mph100%29.83 "HgN/A
6:25 am57 °FCool.3 mph94%29.83 "HgN/A
5:55 am55 °FCool.5 mph100%29.83 "HgN/A
5:25 am57 °FCool.3 mph94%29.83 "HgN/A
4:55 am59 °FClear.6 mph94%29.86 "HgN/A
4:25 am61 °FPartly cloudy.7 mph88%29.86 "HgN/A
3:55 am61 °FPartly cloudy.8 mph88%29.86 "HgN/A
3:25 am59 °FCool.6 mph94%29.86 "HgN/A
2:55 am61 °FPassing clouds.5 mph88%29.86 "HgN/A
2:25 am61 °FPassing clouds.7 mph94%29.86 "HgN/A
1:55 am63 °FPartly cloudy.8 mph88%29.86 "HgN/A
1:25 am63 °FMostly cloudy.7 mph88%29.86 "HgN/A
12:55 am63 °FMostly cloudy.8 mph88%29.86 "HgN/A
12:25 am63 °FPassing clouds.8 mph88%29.86 "HgN/A
11:55 pm
Tue, Jul 25
63 °FMostly cloudy.8 mph94%29.86 "HgN/A
11:25 pm63 °FMostly cloudy.7 mph94%29.86 "HgN/A
10:55 pm63 °FDrizzle. Overcast.9 mph88%29.86 "HgN/A
10:25 pm63 °FLight rain. Mostly cloudy.12 mph88%29.86 "HgN/A
9:55 pm64 °FOvercast.10 mph83%29.86 "HgN/A
9:25 pm64 °FMostly cloudy.13 mph78%29.86 "HgN/A
8:55 pm64 °FCloudy.12 mph78%29.86 "HgN/A
8:25 pm64 °FCloudy.12 mph78%29.86 "HgN/A
7:55 pm64 °FCloudy.16 mph78%29.86 "HgN/A
7:25 pm66 °FBroken clouds.12 mph73%29.86 "HgN/A
6:55 pm64 °FBroken clouds.16 mph78%29.86 "HgN/A
6:25 pm66 °FPartly sunny.15 mph73%29.86 "HgN/A
5:55 pm64 °FBroken clouds.15 mph78%29.86 "HgN/A
5:25 pm66 °FPartly sunny.16 mph78%29.86 "HgN/A
4:55 pm66 °FPartly sunny.16 mph78%29.86 "HgN/A
4:25 pm64 °FBroken clouds.14 mph78%29.86 "HgN/A
3:55 pm66 °FPartly sunny.16 mph78%29.86 "HgN/A
3:25 pm68 °FPassing clouds.15 mph73%29.86 "HgN/A
2:55 pm68 °FPassing clouds.15 mph69%29.86 "HgN/A
1:55 pm66 °FPartly sunny.16 mph73%29.86 "HgN/A
1:25 pm66 °FBroken clouds.15 mph73%29.86 "HgN/A
12:55 pm66 °FBroken clouds.14 mph78%29.86 "HgN/A
12:25 pm66 °FScattered clouds.14 mph73%29.89 "HgN/A
Weather by CustomWeather, © 2017

See weather overviewHow to use our weather pages